Skip Page Navigation
NASA JPL Caltech
NASA Logo - Jet Propulsion Laboratory + View the NASA Portal
+ Center for Near-Earth Object Studies
JPL Home Earth Solar System Stars & Galaxies Technology
JPL Solar System Dynamics
BODIES ORBITS EPHEMERIDES TOOLS PHYSICAL DATA DISCOVERY FAQ SITE MAP
IMPORTANT: The SSD Announcement email list is now available. Major changes are coming in the near future, including possible hostname and/or URL changes. To be notified of such changes, subscribe to this email list.

Please visit this page for more details.


JPL Small-Body Database Browser
Search: [ help ]  
47636 (2000 CV25)
Classification: Main-belt Asteroid          SPK-ID: 2047636
Ephemeris | Orbit Diagram | Orbital Elements | Mission Design | Physical Parameters | Discovery Circumstances | Close-Approach Data ]

[ show orbit diagram ]
Orbital Elements at Epoch 2458600.5 (2019-Apr-27.0) TDB
Reference: JPL 21 (heliocentric ecliptic J2000)
 Element Value Uncertainty (1-sigma)   Units 
e .02436032387934648 3.2842e-08  
a 2.723049403742303 1.3844e-08 au
q 2.656715038327679 9.4934e-08 au
i 1.904493942036899 3.6476e-06 deg
node 223.3197728476205 0.00011131 deg
peri 69.67103789023851 0.00013922 deg
M 309.8838833894081 8.2363e-05 deg
tp 2458828.984434067256
(2019-Dec-11.48443407)
0.00037543 TDB
period 1641.276336379743
4.49
1.2516e-05
3.427e-08
d
yr
n .2193414917527371 1.6727e-09 deg/d
Q 2.789383769156927 1.4181e-08 au
  Orbit Determination Parameters
   # obs. used (total)      1156  
   data-arc span      7615 days (20.85 yr)  
   first obs. used      1998-10-14  
   last obs. used      2019-08-20  
   planetary ephem.      DE431  
   SB-pert. ephem.      SB431-N16  
   condition code      0  
   norm. resid. RMS      .53236  
   source      ORB  
   producer      Otto Matic  
   solution date      2019-Sep-24 02:13:50  

Additional Information
 Earth MOID = 1.64062 au 
 Jupiter MOID = 2.23835 au 
 T_jup = 3.356 
[ show covariance matrix ]

Ephemeris | Orbit Diagram | Orbital Elements | Mission Design | Physical Parameters | Discovery Circumstances | Close-Approach Data ]

Physical Parameter Table
Parameter Symbol Value Units Sigma Reference Notes
absolute magnitude H 14.8   n/a MPO263737  

47636 (2000 CV25)          Discovered 2000-Feb-02 by LINEAR at Socorro
Reference: 20020921/Numbers.arcLast Updated: 2004-04-19

[ show close-approach data ]
Ephemeris | Orbit Diagram | Orbital Elements | Mission Design | Physical Parameters | Discovery Circumstances | Close-Approach Data ]
ABOUT SSD CREDITS/AWARDS PRIVACY/COPYRIGHT GLOSSARY LINKS
FirstGov 2020-Jan-26 06:28 UT
(server date/time)  
NASA Home Page
Site Manager:   Ryan S. Park
Webmaster  Alan B. Chamberlin